www.srh.weather.gov   
NOAA logo - Click to go to the NOAA homepage   NWS logo
Regional Weather Roundup
Enter Your "City, ST" or zip code   
Current Version              Previous Version:    01  02  03  04  05  06  07  08  09  10  11  12  13  14  15  16  17  18  19  20  21  22  23  24  25  26  27  28  29  30  
   31  32  33  34  35  36  37  38  39  40  41  42  43  44  45  46  47  48  49  50  51  52  53  54  55  56  57  58  59  60  
[Printable]
479
ASUS44 KLUB 230810
RWRTX
WEST TEXAS WEATHER ROUNDUP
NATIONAL WEATHER SERVICE LUBBOCK TX
300 AM CDT THU OCT 23 2014

NOTE: "FAIR" INDICATES FEW OR NO CLOUDS BELOW 12,000 FEET WITH NO
SIGNIFICANT WEATHER AND/OR OBSTRUCTIONS TO VISIBILITY.

TXZ004-006>008-010-012-014-016-OKZ002-230900-
TEXAS PANHANDLE/OKLAHOMA PANHANDLE

CITY           SKY/WX    TMP DP  RH WIND       PRES   REMARKS
AMARILLO       MOCLDY    60  58  92 S14       30.12S
CANADIAN       CLOUDY    63  61  93 SW3       30.09S
DALHART        CLEAR     55  53  93 S7        30.11S FOG
DUMAS            N/A     57  56  95 S6        30.11R FOG
GUYMON         CLEAR     57  56  96 SW3       30.08R
HEREFORD       CLOUDY    63  60  91 S10       30.13S
PAMPA          MOCLDY    60  58  92 S8        30.12S
PERRYTON       PTCLDY    61  57  88 S9        30.09R
$$

TXZ026-029-035-045-048-230900-
SOUTHERN PANHANDLE/SOUTH PLAINS/ROLLING PLAINS

CITY           SKY/WX    TMP DP  RH WIND       PRES   REMARKS
CHILDRESS      FOG       61  60  97 S5        30.12S VSB 1/4
SEMINOLE       MOCLDY    54  53  97 SW5       30.15S
LUBBOCK        CLEAR     55  53  93 S6        30.14S FOG
PLAINVIEW      CLOUDY    57  56  96 SW7       30.12F FOG
SNYDER         CLOUDY    58  56  92 CALM      30.14S
$$

TXZ052-054-060>062-072-078-127-140-154-169-230900-
PERMIAN BASIN/CONCHO VALLEY/BIG COUNTRY/EDWARDS PLATEAU

CITY           SKY/WX    TMP DP  RH WIND       PRES   REMARKS
ABILENE        CLOUDY    60  55  83 S5        30.13R
BIG SPRING     CLEAR     59  55  89 SE5       30.15S
BRADY          CLEAR     63  52  67 CALM      30.11S
BROWNWOOD      CLOUDY    64  57  77 NW5       30.12R
JUNCTION       CLOUDY    62  61  96 CALM      30.12S
MIDLAND        CLEAR     56  53  90 SE5       30.12S
ODESSA         CLEAR     57  54  89 S5        30.12F
SAN ANGELO     CLEAR     58  54  86 W3        30.12S
SONORA         CLEAR     57  57 100 N3        30.18R
SWEETWATER     CLOUDY    60  56  85 S3        30.16S
WINK           CLEAR     58  57  97 E6        30.10S
$$

TXZ055-058-074-075-080-082-230900-
FAR WEST/SOUTHWEST MOUNTAINS/TRANS PECOS

CITY           SKY/WX    TMP DP  RH WIND       PRES   REMARKS
ALPINE         CLEAR     57  56  95 SW8       30.24S
DRYDEN           N/A     62  60  93 CALM      30.12S
EL PASO        CLEAR     61  54  77 SE5       30.14R
FORT STOCKTON  CLEAR     59  57  93 S12       30.11S
GUADALUPE PASS CLEAR     57  53  86 SW12      30.23S
MARFA          CLOUDY    57  57 100 S3        30.23S
PECOS          CLEAR     59  57  93 NE3       30.10S
PRESIDIO       FAIR      65  60  84 CALM      30.13S
$$

TXZ014-016-019-021>030-083-230900
TEXAS TECH WEST TEXAS MESONET/TEXAS PANHANDLE/NORTHERN SOUTH PLAINS

CITY           SKY/WX    TMP DP  RH WIND       PRES   REMARKS
ABERNATHY 5ENE   N/A     55  53  96 S6        30.15F
AMARILLO 9NNE    N/A     61  58  91 S3        30.10S
AMARILLO 7SSE    N/A     60  58  92 S10       30.13S
AMHERST 1NE      N/A     55  54  98 S5        30.14F
BOOTLEG 11WNW    N/A     57  56  98 S20       30.15F
CANADIAN 6E      N/A     61  59  94 S7        30.08S
CAPROCK CYN SP   N/A     58  57  96 S7        30.12S
CHILDRESS 2NNE   N/A     57  56  97 SW3       30.11S
CLARENDON 2WSW   N/A     58  56  92 S8        30.12R
CLAUDE 12SW      N/A     60  57  90 SW10      30.13S
DIMMITT 2NE      N/A     58  56  92 S12       30.13S
FLOYDADA 2NNE    N/A     55  54  98 S8        30.13F
FRIONA 2NE       N/A     59  57  91 S12       30.14F
GOODLETT 3W      N/A     59  57  92 S1        30.10S
HART 3N          N/A     58  56  94 S10       30.14S
HEREFORD 2NW     N/A     60  56  86 S14       30.13S
MCLEAN 1E        N/A     59  58  96 S9        30.10S
MEMPHIS 1NE      N/A     60  59  97 S5        30.11S
MULESHOE 2SSW    N/A     60  57  91 SW7       30.14S
OLTON 6S         N/A     56  54  94 S7        30.14S
PALO DURO SP     N/A     61  57  87 S8        30.14S
PAMPA 2E         N/A     60  58  94 S8        30.11S
PLAINVIEW 1S     N/A     57  56  97 S9        30.13S
SILVERTON 7ESE   N/A     57  55  94 SW10      30.13S
TULIA 2ENE       N/A     57  56  95 SW12      30.13F
TURKEY 2WSW      N/A     56  55  97 SW3       30.11S
UMBARGER 3NNE    N/A     60  58  92 S8        30.13S
$$

TXZ033>036-039>041-045>048-230900
TEXAS TECH WEST TEXAS MESONET/SOUTH PLAINS

CITY           SKY/WX    TMP DP  RH WIND       PRES   REMARKS
AIKEN 3WSW       N/A     56  56  99 S6        30.15S
ANDREWS 2NE      N/A     56  53  91 S3        30.13S
ANTON 6SSW       N/A     53  52  97 SE3       30.14S
BROWNFIELD 2S    N/A     51  50  97 S3        30.14S
DENVR CTY 7WNW   N/A     53  51  94 SW8       30.13F
GAIL 2ESE        N/A     55  52  91 S1        30.13S
LAMESA 2SE       N/A     52  51  95 CALM      30.14R
LEVELLAND 4S     N/A     51  49  93 S3        30.14S
LUBBOCK 3WNW     N/A     55  53  92 S5        30.14F
MORTON 1ENE      N/A     54  53  98 S1        30.14S
ODONNELL 1N      N/A     52  50  92 S3        30.14S
PLAINS 3N        N/A     52  50  93 S3        30.14S
RALLS 1SE        N/A     55  54  98 S7        30.15S
REESE CENTER     N/A     53  52  97 SE6       30.14S
SEMINOLE 2NNE    N/A     54  51  90 SW3       30.14S
SLATON 2NE       N/A     51  50  97 S5        30.14F
SNYDER 3E        N/A     58  56  96 S5        30.13S
SUNDOWN 8SW      N/A     51  50  95 S6        30.14S
TAHOKA 3NNE      N/A     52  51  95 S3        30.14S
WOLFFORTH 6SSW   N/A     53  53  99 SE3       30.14F
$$

TXZ031-032-036>038-042>044-230900-
TEXAS TECH WEST TEXAS MESONET/ROLLING PLAINS

CITY           SKY/WX    TMP DP  RH WIND       PRES   REMARKS
ASPERMONT 3NE    N/A     62  61  96 S2        30.11F
FLUVANNA 3WNW    N/A     58  55  88 S7        30.13S
GRAHAM 5SSW      N/A     57  53  86 S2        30.14R
GUTHRIE 10WSW    N/A     58  56  95 S2        30.11S
HASKELL 1NW      N/A     64  58  82 S2        30.10S
JAYTON 1SSE      N/A     59  58  94 W2        30.13R
KNOX CITY 3NW    N/A     61  58  89 SW2       30.11S
LK A HENRY 1NW   N/A     59  57  94 CALM      30.13S
NORTHFIELD 1S    N/A     56  55  99 SE3       30.11S
ODELL 4ENE       N/A     61  60  94 SE3       30.10S
PADUCAH 10SW     N/A     59  58  97 S7        30.11S
POST 1NE         N/A     57  53  88 S2        30.13S
RRING SPRGS 3N   N/A     56  55  98 S9        30.12S
SEYMOUR 3NW      N/A     62  59  90 SE5       30.09F
SPUR 1W          N/A     53  51  95 CALM      30.12S
WEINERT 2NNE     N/A     61  60  95 CALM      30.10S
WHITE RVR 6NE    N/A     58  57  97 S7        30.13S
$$

TXZ052-054-060>062-072-078-127-140-154-169-230900-
TEXAS TECH WEST TEXAS MESONET/PERMIAN BASIN/
CONCHO VALLEY/BIG COUNTRY/EDWARDS PLATEAU

CITY           SKY/WX    TMP DP  RH WIND       PRES   REMARKS
COYANOSA 2N      N/A     58  57  96 CALM      30.10S
JUNCTION 1SSW    N/A     61  61  99 W2        30.13S
MERTZON 3NNE     N/A     56  55  97 CALM      30.14S
SAN ANGELO 7NW   N/A     56  53  89 W1        30.13S
STRLNG CT 4WSW   N/A     54  53  94 E1        30.13F
ST LAWRNCE 5SW   N/A     53  52  96 SE6       30.13S
SWEETWATR 11SW   N/A     58  55  90 S2        30.14S
WALL 1E          N/A     57  53  84 NW5       30.13S
$$

TXZ055-058-074-075-080-082-230900-
TEXAS TECH WEST TEXAS MESONET/FAR WEST/SOUTHWEST MOUNTAINS/TRANS PECOS

CITY           SKY/WX    TMP DP  RH WIND       PRES   REMARKS
PRSMN GAP BBNP   N/A     61  59  94 NE8       30.15R
GUADLPE MTN NP   N/A     57  51  81 SW6       30.22F
$$



361
ASUS42 KKEY 230810
RWRKEY

FLORIDA REGIONAL WEATHER ROUNDUP FOR THE FLORIDA KEYS
NATIONAL WEATHER SERVICE KEY WEST FLORIDA
400 AM EDT THU OCT 23 2014

...SOUTH FLORIDA AND THE KEYS...

CITY           SKY/WX    TMP DP  RH WIND       PRES   REMARKS
FORT MYERS     CLOUDY    71  65  81 NE9       29.90F
SW REGIONAL AP CLOUDY    70  65  84 E9        29.90F
NAPLES         CLOUDY    74  71  91 E8        29.88F
MIAMI          LGT RAIN  75  73  93 E3        29.89F
WEST KENDALL   LGT RAIN  75  73  93 CALM      29.89F
HOMESTEAD      CLOUDY    74  73  97 CALM      29.89F
MARATHON       LGT RAIN  74  32  21 E8        29.87F
BOCA CHICA NAS CLOUDY   N/A N/A N/A E17       29.85F
KEY WEST INTL  LGT RAIN  76  75  97 E13       29.85F

...INTERNATIONAL WEATHER...

CITY           SKY/WX    TMP DP  RH WIND       PRES   REMARKS
NASSAU BAHAMAS CLOUDY    75  72  88 CALM      29.89F
CANCUN MEXICO  MOCLDY    75  75 100 N3        29.77F
COZUMEL MEXICO CLOUDY    72  72 100 CALM      29.77S

ADJACENT COASTAL WATERS...

STATION/POSITION TIME  SKY/WX   TEMP    WIND        PRES    WAVE
                                AIR SEA DIR/SP/G            HT/PER
                 (UTC)          (F)     (DEG/KT/KT) (MB)    (FT/S)
PULASKI SHOAL LI 0700            79     100/ 22/ 25 1010.1F
SAND KEY         0800            77      30/  5/ 18 1010.6F
SOMBRERO KEY     0800            76     100/ 18/ 19 1011.7F
LONG KEY         0700            77 79  130/ 12/ 13 1012.7F
MOLASSES REEF    0800            78 83   80/ 12/ 15 1011.8F
FOWEY ROCKS      0800            78 80  110/  6/  7 1012.2F
Buoy 42080       NOT AVBL

$$



National Weather Service
Disclaimer
Last Modified: August 31, 2005
Privacy Policy